Location: Lawrence Hall of Science
(37.8785°N, 122.2415°W)
Time: 20:34:37
(UTC-07:00)

Daily predictions for brighter satellites

Satellite Brightness Start Highest point End
(mag) Time Altitude Azimuth Time Altitude Azimuth Time Altitude Azimuth
Spot 2 Rocket 4.0 21:00:07 10° S 21:05:06 63° WSW 21:10:08 10° NNW
Cosmos 676 Rocket 4.1 21:00:07 10° SSW 21:05:22 87° WNW 21:10:35 10° NNE
Cosmos 1707 4.3 21:02:55 10° SSW 21:06:35 40° W 21:10:18 10° N
SAR-Lupe-4 4.2 21:07:57 10° SE 21:11:17 39° ENE 21:14:39 10° N
Aureole 2 Rocket 2.9 21:07:12 10° NNW 21:11:18 80° WSW 21:15:07 10° SSE
NOSS 3-4 (A) 4.0 21:06:23 10° NNW 21:13:27 68° NE 21:20:58 10° SE
NOSS 3-4 (C) 4.0 21:06:29 10° NNW 21:13:33 67° NE 21:21:03 10° SE
Cosmos 2219 Rocket 3.3 21:14:18 10° NW 21:19:39 43° WSW 21:24:56 10° S
Meteor 1-29 3.0 21:16:26 10° NNE 21:19:50 58° E 21:23:13 10° S
Okean 3 Rocket 4.2 21:15:54 10° SSE 21:20:02 37° E 21:24:10 10° NNE
Meteor 2-1 Rocket 4.4 21:14:32 10° N 21:20:19 61° E 21:25:57 10° SSE
USA 186 3.4 21:19:44 10° SSW 21:21:44 23° W 21:23:39 10° NW
Cosmos 2221 3.4 21:17:46 10° NNE 21:21:47 33° ENE 21:25:34 11° SE
Cosmos 2333 Rocket 3.0 21:16:46 10° NNW 21:22:14 51° WSW 21:27:39 10° S
Envisat 3.4 21:24:35 10° S 21:29:36 63° W 21:34:39 10° NNW
SAR-Lupe-1 4.2 21:27:14 10° SSE 21:30:43 60° ENE 21:34:16 10° N
SL-8 R/B 4.2 21:27:05 10° WNW 21:31:42 50° SW 21:35:46 13° SSE
BREEZE-M DEB (TANK) 4.3 21:32:53 10° WNW 21:34:19 17° NNW 21:36:16 10° NNE
Cosmos 1242 Rocket 3.8 21:31:18 10° NNE 21:34:28 26° ENE 21:36:40 15° ESE
Cosmos 1140 Rocket 4.1 21:35:52 10° SSW 21:40:58 61° WNW 21:46:05 10° N
USA 32 4.1 21:37:00 10° S 21:42:15 86° W 21:47:31 10° N
Resurs 01 Rocket 4.2 21:40:28 10° SW 21:43:33 19° W 21:46:39 10° NW
Cosmos 1939 Rocket 3.8 21:40:19 10° S 21:44:09 47° W 21:48:04 10° NNW
Cosmos 1570 Rocket 4.3 21:40:04 10° N 21:45:16 53° ENE 21:49:10 17° SE
Meteor 1-21 Rocket 4.4 21:41:01 10° S 21:46:33 53° E 21:51:59 10° NNE
Cosmos 2297 Rocket 3.6 21:46:15 10° SW 21:51:34 41° WNW 21:56:55 10° N
Cosmos 1340 Rocket 3.7 21:50:54 10° SSW 21:54:47 50° WNW 21:58:45 10° N
Cosmos 1867 3.5 21:51:32 10° SSW 21:56:57 78° ESE 22:02:25 10° NNE
Cosmos 1300 4.4 21:56:21 10° NNE 21:59:04 18° ENE 22:00:02 17° E
CZ-4B DEB 4.4 21:59:12 10° SSW 22:01:49 28° W 22:04:27 10° NW
MetOp-B 4.1 21:58:33 18° SSE 22:02:38 73° ENE 22:07:59 10° N
YAOGAN 6 3.8 22:00:00 10° SSW 22:03:23 39° W 22:06:51 10° NNW
Cosmos 2263 Rocket 3.7 22:03:21 16° ESE 22:03:47 16° E 22:07:06 10° ENE
Cosmos 1726 3.2 22:03:56 10° NNE 22:07:10 28° ENE 22:08:04 25° ESE
Cosmos 2084 3.7 22:03:54 10° SW 22:07:53 63° NW 22:11:44 10° NNE
Cosmos 1459 Rocket 4.0 22:03:06 10° N 22:09:25 79° E 22:14:09 18° S
Cosmos 2100 Rocket 4.0 22:03:26 10° N 22:09:47 86° E 22:14:53 17° S
SPOT 5 3.0 22:07:35 24° SSE 22:10:24 62° ENE 22:15:22 10° N
Cosmos 2061 Rocket 4.0 22:04:37 10° N 22:11:01 74° E 22:15:41 20° SSE
ATLAS 5 CENTAUR R/B 2.7 22:07:18 10° SW 22:11:48 51° NW 22:16:42 10° NNE
Cosmos 1000 Rocket 4.5 22:07:22 10° S 22:13:41 88° E 22:20:00 10° N
Lacrosse 5 3.2 22:09:30 10° NNW 22:14:01 31° NE 22:17:19 16° E
Cosmos 2123 Rocket 4.2 22:15:14 22° SSE 22:19:07 53° E 22:25:07 10° NNE
Cosmos 468 Rocket 4.4 22:14:39 10° N 22:19:36 46° ENE 22:21:53 28° SE
Cosmos 371 Rocket 4.4 22:17:01 10° N 22:21:15 30° ENE 22:23:02 23° ESE
Cosmos 2237 Rocket 4.1 22:17:27 10° NW 22:21:43 23° W 22:25:58 10° SSW
Cosmos 2173 Rocket 4.0 22:16:34 10° N 22:22:44 83° W 22:27:23 19° S
H-2A R/B 2.3 22:22:02 28° SE 22:24:45 60° ENE 22:30:04 10° N
ERS-1 Rocket 3.7 22:21:42 15° S 22:25:41 49° W 22:30:35 10° NNW
Cosmos 1674 3.8 22:22:23 10° SSW 22:25:59 43° W 22:29:36 10° N
Cosmos 1908 4.0 22:24:33 10° NNW 22:28:18 49° W 22:30:27 22° SSW
Cosmos 1603 4.0 22:23:06 10° NNW 22:28:39 54° ENE 22:31:12 30° SE
Nimbus 7 Rocket 4.4 22:23:30 10° NNE 22:29:32 74° ESE 22:34:04 18° S
Atlas Centaur 2 2.9 22:30:26 10° WSW 22:31:56 16° SW 22:31:56 16° SW
USA 234 3.4 22:26:27 10° NE 22:32:59 75° NW 22:39:30 10° SW
Cosmos 1818 3.9 22:29:35 10° NW 22:34:56 59° WSW 22:37:34 29° S
Cosmos 220 Rocket 4.1 22:34:08 40° SSE 22:35:23 55° ESE 22:39:42 10° NNE
Tiangong 1 2.8 22:35:15 10° WNW 22:37:44 28° N 22:39:04 19° NE
Milstar 3 Cent rocket 4.3 22:32:33 10° WSW 22:40:14 40° S 22:47:28 25° SE
Landsat 7 4.0 22:38:42 39° SE 22:40:15 58° ENE 22:44:56 10° N
Cosmos 1408 Rocket 4.0 22:37:42 19° SSW 22:40:36 57° W 22:44:52 10° N
Cosmos 1802 Rocket 4.2 22:35:43 10° NNW 22:41:48 67° W 22:45:49 22° S
Cosmos 1725 Rocket 3.9 22:38:08 10° N 22:44:24 73° E 22:47:15 34° SSE
SL-16 R/B 3.4 22:40:24 10° NW 22:45:31 36° WSW 22:48:57 18° SSW
Cosmos 1943 4.1 22:40:31 10° N 22:45:44 37° ENE 22:47:48 28° ESE
ARGOS 3.7 22:43:20 24° S 22:46:32 55° W 22:51:51 10° NNW
Sakura Rocket 4.4 22:41:51 10° WSW 22:48:26 36° S 22:49:07 35° S
Cosmos 1356 4.5 22:51:47 34° ENE 22:51:47 34° ENE 22:54:18 10° NNE
Cosmos 1703 4.4 22:51:37 30° ENE 22:51:37 30° ENE 22:54:36 10° NNE
Cosmos 2058 3.5 22:51:16 40° E 22:51:16 40° E 22:55:10 10° NNE
CZ-4B R/B 4.4 22:48:18 10° NE 22:52:57 31° E 22:53:06 31° E
CZ-4 R/B 4.5 22:49:01 10° NNE 22:53:29 36° E 22:53:34 36° E
Terra 2.0 22:54:08 46° ESE 22:55:12 57° ENE 22:59:53 10° N
DMSP B5D2-2 4.0 22:54:22 10° NNE 22:59:37 87° WNW 23:01:57 34° SSW
Cosmos 1500 Rocket 3.5 22:59:25 59° SSE 23:00:13 78° E 23:04:42 10° N
ERBS 3.9 22:58:06 10° NNW 23:01:04 27° NE 23:01:14 27° NE
Cosmos 1354 Rocket 4.4 23:06:54 43° ESE 23:07:02 43° ESE 23:11:59 10° NNE
Meteor 1-11 4.2 23:05:08 41° S 23:07:16 80° E 23:13:05 10° NNE
Cosmos 2151 2.8 23:07:09 72° SE 23:07:28 77° E 23:11:47 10° N
CARTOSAT-1 3.4 23:09:48 72° SSE 23:10:13 86° ENE 23:14:34 10° N
Cosmos 332 Rocket 3.9 23:06:03 10° NNW 23:10:55 68° WSW 23:11:57 52° SSW
RESURS DK-1 2.4 23:06:48 10° NNW 23:10:56 66° WSW 23:11:11 64° SW
Cosmos 1814 Rocket 4.1 23:12:08 10° NNW 23:17:28 72° WSW 23:18:38 53° S
Spot 4 4.2 23:18:33 49° E 23:19:03 51° ENE 23:23:46 10° N
CZ-2C R/B 4.4 23:16:01 10° NE 23:18:36 17° E 23:18:36 17° E
Cosmos 1486 Rocket 4.2 23:17:35 34° SW 23:19:53 69° WNW 23:25:11 10° NNE
Meteor 1-27 4.2 23:17:56 10° N 23:23:47 90° E 23:25:09 55° S
Cosmos 304 Rocket 4.4 23:22:38 10° N 23:27:11 41° ENE 23:27:26 41° ENE
Cosmos 2228 Rocket 4.1 23:24:15 10° NNW 23:28:33 40° W 23:29:28 36° WSW
Cosmos 1515 Rocket 4.1 23:25:46 10° NNW 23:29:56 48° W 23:30:20 46° WSW
Cosmos 841 Rocket 3.3 23:25:30 10° NNW 23:30:47 90° NE 23:31:24 70° SSE
H-2A R/B 2.1 23:31:35 72° WSW 23:31:36 72° WSW 23:35:54 10° NNW
SME Rocket 3.7 23:32:35 42° NE 23:32:35 42° NE 23:36:17 10° N
Cosmos 1763 Rocket 3.5 23:29:02 10° NNW 23:34:05 64° WSW 23:34:39 59° SW
Cosmos 1626 2.8 23:34:58 54° NNW 23:34:58 54° NNW 23:38:05 10° N
Cosmos 1300 4.5 23:31:36 10° NW 23:34:43 24° W 23:35:03 24° W
Cosmos 1151 Rocket 3.5 23:34:10 10° NNW 23:38:25 51° W 23:38:34 51° W
Cosmos 2233 Rocket 4.1 23:32:37 10° NNW 23:38:47 67° W 23:40:32 46° SSW
Cosmos 2263 Rocket 2.5 23:44:59 36° SW 23:47:06 60° WNW 23:52:38 10° NNE
